Location: B?dargowo
(53.3916°N, 14.4413°E)
Time: 10:05:38
(UTC+00:00)

Cosmos 2322 Rocket - Pass Details

Date: 05 February 2023
Orbit: 832 x 851 km, 71.0° (Epoch: 20 March)

Event Time Altitude Azimuth Distance (km) Brightness Sun altitude
Rises 19:32:03 0° 260° (W) 3,377 6.2 -32.6°
Reaches altitude 10° 19:34:59 10° 275° (W) 2,447 5.4 -33.0°
Maximum altitude 19:39:25 23° 327° (NNW) 1,699 4.2 -33.7°
Enters shadow 19:41:38 19° 359° (N) 1,916 4.2 -34.0°
